Regional Weather Roundup
Issued by NWS Kansas City/Pleasant Hill, MO

Home | Current Version | Previous Version | Text Only | Print | Product List | Glossary On
Versions: 1 2 3 4 5 6 7 8 9 10 11 12 13 14 15 16 17 18 19 20 21 22 23 24 25 26 27 28 29 30 31 32 33 34 35 36 37 38 39 40 41 42 43 44 45 46 47 48 49 50
000
ASUS43 KEAX 240304
RWREAX

WEATHER ROUNDUP FOR EASTERN KANSAS AND NORTHWEST MISSOURI
NATIONAL WEATHER SERVICE KANSAS CITY/PLEASANT HILL MO
1000 PM CDT TUE SEP 23 2014

KSZ040-057-103>105-MOZ028-029-037-043-240400-
...KANSAS CITY METROPOLITAN AREA...

CITY           SKY/WX    TMP DP  RH WIND       PRES   REMARKS
K.C. INTL      CLOUDY    66  52  60 SE8       30.18R
K.C. DOWNTOWN  CLOUDY    68  51  54 E7        30.18R
LEES SUMMIT    MOCLDY    65  50  58 E7        30.19R
OLATHE - IXD   CLOUDY    64  53  67 SE9       30.18R
OLATHE - OJC   CLOUDY    64  52  64 SE9       30.17R
LAWRENCE       LGT RAIN  62  56  80 E7        30.18R

$$

MOZ001>008-011>017-020>025-030>033-038>040-044>046-053-054-240400-
...NORTHERN AND CENTRAL MISSOURI...

CITY           SKY/WX    TMP DP  RH WIND       PRES   REMARKS
ST. JOSEPH     CLOUDY    64  54  69 SE14      30.15F
MOSBY          CLOUDY    61  54  77 CALM      30.20R
WHITEMAN AFB   CLOUDY    62  53  72 SE5       30.19R
CLINTON        PTCLDY    61  55  82 CALM      30.20R
SEDALIA        CLOUDY    63  51  65 E5        30.20R
WARSAW         NOT AVBL
MARSHALL       CLOUDY    66  52  59 E5        30.20R
CHILLICOTHE      N/A     60  54  80 CALM      30.21R
MOBERLY        CLOUDY    59  50  72 SE6       30.23S
KIRKSVILLE     CLOUDY    61  52  72 SE9       30.22F

$$

MOZ041-047>049-056>058-063>065-088>090-097-240400-
...EASTERN AND SOUTHERN MISSOURI...

CITY           SKY/WX    TMP DP  RH WIND       PRES   REMARKS
ST. LOUIS INTL MOCLDY    63  51  65 E6        30.25R
SPIRIT OF STL  PTCLDY    55  51  86 CALM      30.23R
COLUMBIA       MOCLDY    63  52  67 E8        30.22S
JEFFERSON CITY CLOUDY    61  52  72 SE6       30.21S
MEXICO         CLOUDY    61  55  82 CALM      30.24R
ROLLA          CLOUDY    60  48  64 SE6       30.23R
LEBANON        MOCLDY    61  45  55 SE5       30.22S
OSAGE BEACH    MOCLDY    61  45  55 CALM      30.21S
SPRINGFIELD    CLEAR     59  48  67 SE9       30.19S
BRANSON        CLEAR     55  48  76 SE7       30.21F
NEVADA         PTCLDY    59  48  67 E3        30.19R
JOPLIN         PTCLDY    61  49  64 SE6       30.17S
WEST PLAINS    PTCLDY    54  49  83 CALM      30.24R

$$

IAZ060-094-KSZ022-034>040-054-083-096-NEZ052-066-093-240400-
...KANSAS...SOUTHEAST NEBRASKA AND IOWA...

CITY           SKY/WX    TMP DP  RH WIND       PRES   REMARKS
TOPEKA         LGT RAIN  65  59  81 SE7       30.15S
MANHATTAN      CLOUDY    64  58  80 SE6       30.12R
EMPORIA        CLOUDY    64  56  75 SE13      30.12F
CHANUTE        CLOUDY    67  53  61 S7        30.16R
WICHITA        CLOUDY    70  51  51 SE14      30.08R
OMAHA          CLOUDY    64  54  69 SE18      30.10F
LINCOLN        MOCLDY    63  55  75 S15       30.09R
FALLS CITY     CLOUDY    62  58  86 SE13      30.13R
LAMONI         CLOUDY    62  53  72 CALM      30.17R
DES MOINES     CLOUDY    63  53  70 S8        30.18R

$$




USA.gov is the U.S. government's official web portal to all federal, state and local government web resources and services.